TimeMST,TemperatureF,Dew PointF,Humidity,Sea Level PressureIn,VisibilityMPH,Wind Direction,Wind SpeedMPH,Gust SpeedMPH,PrecipitationIn,Events,Conditions,WindDirDegrees,DateUTC
12:15 AM,-1.7,-5.8,83,30.16,0.2,Calm,Calm,-,N/A,Snow,Light Snow,0,2012-12-10 07:15:00
12:35 AM,-0.9,-4.5,85,30.15,0.8,Calm,Calm,-,N/A,,Overcast,0,2012-12-10 07:35:00
12:55 AM,-0.8,-5.8,79,30.14,1.8,Calm,Calm,-,N/A,Snow,Light Snow,0,2012-12-10 07:55:00
1:15 AM,-1.3,-5.3,83,30.13,7.0,Calm,Calm,-,N/A,,Overcast,0,2012-12-10 08:15:00
1:55 AM,-9999,-9999,N/A,30.12,10.0,Calm,Calm,-,N/A,,Unknown,0,2012-12-10 08:55:00
2:15 AM,-9999,-9999,N/A,30.12,10.0,Calm,Calm,-,N/A,,Unknown,0,2012-12-10 09:15:00
2:35 AM,-9999,-9999,N/A,30.10,10.0,Calm,Calm,-,N/A,,Overcast,0,2012-12-10 09:35:00
2:55 AM,-9999,-9999,N/A,30.10,5.0,Calm,Calm,-,N/A,,Unknown,0,2012-12-10 09:55:00
3:15 AM,-9999,-9999,N/A,30.10,2.0,Calm,Calm,-,N/A,,Unknown,0,2012-12-10 10:15:00
3:35 AM,-9999,-9999,N/A,30.09,0.5,Calm,Calm,-,N/A,,Unknown,0,2012-12-10 10:35:00
3:55 AM,-9999,-9999,N/A,30.08,0.2,Calm,Calm,-,N/A,,Unknown,0,2012-12-10 10:55:00
4:15 AM,-9999,-9999,N/A,30.08,0.2,Calm,Calm,-,N/A,,Unknown,0,2012-12-10 11:15:00
4:35 AM,-9999,-9999,N/A,30.07,0.2,Calm,Calm,-,N/A,Fog,Fog,0,2012-12-10 11:35:00
5:15 AM,-9999,-9999,N/A,30.06,1.2,Calm,Calm,-,N/A,,Overcast,0,2012-12-10 12:15:00
5:35 AM,-9999,-9999,N/A,30.06,1.2,Calm,Calm,-,N/A,,Overcast,0,2012-12-10 12:35:00
5:55 AM,-9999,-9999,N/A,30.08,10.0,South,4.6,-,N/A,,Scattered Clouds,170,2012-12-10 12:55:00
6:15 AM,-9999,-9999,N/A,30.08,10.0,Calm,Calm,-,N/A,,Scattered Clouds,0,2012-12-10 13:15:00
6:35 AM,-9999,-9999,N/A,30.08,10.0,Calm,Calm,-,N/A,,Scattered Clouds,0,2012-12-10 13:35:00
6:55 AM,-9999,-9999,N/A,30.08,10.0,North,3.5,-,N/A,,Clear,350,2012-12-10 13:55:00
7:15 AM,-9999,-9999,N/A,30.08,10.0,NNW,8.1,-,N/A,,Clear,330,2012-12-10 14:15:00
7:35 AM,-9999,-9999,N/A,30.08,10.0,NNW,12.7,-,N/A,,Clear,330,2012-12-10 14:35:00
7:55 AM,12.6,9.9,89,30.09,10.0,NNW,17.3,-,N/A,,Clear,340,2012-12-10 14:55:00
8:15 AM,13.5,9.3,84,30.10,10.0,NNW,12.7,-,N/A,,Clear,340,2012-12-10 15:15:00
8:35 AM,16.5,6.8,66,30.09,10.0,NNW,11.5,-,N/A,,Clear,340,2012-12-10 15:35:00
8:55 AM,19.2,4.5,53,30.10,10.0,NNW,12.7,16.1,N/A,,Clear,340,2012-12-10 15:55:00
9:15 AM,20.3,3.2,48,30.11,10.0,North,11.5,-,N/A,,Clear,360,2012-12-10 16:15:00
9:35 AM,21.9,3.7,46,30.10,10.0,North,12.7,17.3,N/A,,Clear,350,2012-12-10 16:35:00
9:55 AM,23.0,5.0,46,30.09,10.0,North,13.8,-,N/A,,Clear,350,2012-12-10 16:55:00
10:15 AM,25.2,5.7,44,30.09,10.0,NNW,16.1,21.9,N/A,,Clear,340,2012-12-10 17:15:00
10:35 AM,25.7,5.0,41,30.09,10.0,North,17.3,23.0,N/A,,Clear,350,2012-12-10 17:35:00
11:15 AM,27.1,6.6,42,30.07,10.0,NNW,18.4,26.5,N/A,,Clear,340,2012-12-10 18:15:00
11:35 AM,28.4,5.9,39,30.06,10.0,NNW,19.6,23.0,N/A,,Clear,340,2012-12-10 18:35:00
11:55 AM,28.4,6.1,39,30.05,10.0,NNW,20.7,-,N/A,,Clear,340,2012-12-10 18:55:00
12:15 PM,29.3,7.3,40,30.03,10.0,North,13.8,23.0,N/A,,Clear,350,2012-12-10 19:15:00
12:35 PM,30.6,7.9,39,30.02,10.0,NNW,13.8,18.4,N/A,,Clear,330,2012-12-10 19:35:00
12:55 PM,31.6,8.1,37,30.00,10.0,North,16.1,-,N/A,,Clear,350,2012-12-10 19:55:00
1:15 PM,31.8,10.0,40,30.00,10.0,North,13.8,-,N/A,,Clear,360,2012-12-10 20:15:00
1:35 PM,32.9,9.7,38,30.00,10.0,North,9.2,18.4,N/A,,Clear,360,2012-12-10 20:35:00
1:55 PM,35.6,9.0,33,29.99,10.0,North,11.5,-,N/A,,Clear,350,2012-12-10 20:55:00
2:15 PM,33.4,10.9,39,29.98,10.0,NNE,6.9,-,N/A,,Clear,20,2012-12-10 21:15:00
2:35 PM,33.4,10.4,38,29.97,10.0,NNW,4.6,-,N/A,,Clear,340,2012-12-10 21:35:00
2:55 PM,34.7,10.6,37,29.97,10.0,Calm,Calm,-,N/A,,Clear,0,2012-12-10 21:55:00
3:15 PM,35.8,11.7,37,29.97,10.0,SW,5.8,-,N/A,,Clear,230,2012-12-10 22:15:00
3:35 PM,35.8,9.1,33,29.97,10.0,West,10.4,-,N/A,,Clear,270,2012-12-10 22:35:00
3:55 PM,36.3,9.3,33,29.97,10.0,West,10.4,-,N/A,,Clear,270,2012-12-10 22:55:00
4:15 PM,33.6,8.1,34,29.98,10.0,WNW,8.1,-,N/A,,Clear,300,2012-12-10 23:15:00
4:35 PM,32.7,6.8,34,29.97,10.0,West,10.4,-,N/A,,Clear,280,2012-12-10 23:35:00
4:55 PM,31.8,6.8,35,29.96,10.0,West,11.5,16.1,N/A,,Clear,270,2012-12-10 23:55:00
5:15 PM,31.3,8.8,39,29.97,10.0,WNW,10.4,16.1,N/A,,Clear,290,2012-12-11 00:15:00
5:35 PM,30.4,10.2,43,29.98,10.0,WNW,8.1,-,N/A,,Clear,300,2012-12-11 00:35:00
5:55 PM,30.9,11.7,45,29.98,10.0,West,12.7,-,N/A,,Clear,280,2012-12-11 00:55:00
6:15 PM,26.4,10.0,50,29.99,10.0,NW,3.5,-,N/A,,Scattered Clouds,310,2012-12-11 01:15:00
6:35 PM,25.7,10.0,52,29.99,10.0,Calm,Calm,-,N/A,,Scattered Clouds,0,2012-12-11 01:35:00
6:55 PM,21.2,9.7,61,30.00,10.0,North,5.8,-,N/A,,Scattered Clouds,10,2012-12-11 01:55:00
7:15 PM,25.0,13.5,62,30.00,10.0,NNE,8.1,-,N/A,,Mostly Cloudy,20,2012-12-11 02:15:00
7:55 PM,26.8,12.7,56,30.00,10.0,North,10.4,-,N/A,,Scattered Clouds,350,2012-12-11 02:55:00
8:15 PM,27.5,13.1,55,30.00,10.0,North,11.5,-,N/A,,Clear,360,2012-12-11 03:15:00
8:35 PM,25.7,12.2,57,30.00,10.0,NNW,9.2,-,N/A,,Clear,330,2012-12-11 03:35:00
8:55 PM,24.6,11.5,57,30.00,10.0,North,5.8,-,N/A,,Clear,350,2012-12-11 03:55:00
9:15 PM,23.4,11.8,61,30.01,10.0,NNE,10.4,19.6,N/A,,Clear,20,2012-12-11 04:15:00
9:35 PM,18.3,9.5,68,30.02,10.0,ENE,6.9,-,N/A,,Clear,60,2012-12-11 04:35:00
9:55 PM,17.1,8.4,69,30.02,10.0,North,5.8,-,N/A,,Clear,10,2012-12-11 04:55:00
10:15 PM,15.3,7.7,72,30.02,10.0,North,4.6,-,N/A,,Scattered Clouds,10,2012-12-11 05:15:00
10:35 PM,13.8,6.6,73,30.02,10.0,NE,5.8,-,N/A,,Clear,50,2012-12-11 05:35:00
10:55 PM,14.0,6.6,72,30.02,10.0,NNE,5.8,-,N/A,,Scattered Clouds,30,2012-12-11 05:55:00
11:35 PM,13.6,6.8,74,30.02,10.0,SSE,5.8,-,N/A,,Scattered Clouds,160,2012-12-11 06:35:00
11:55 PM,13.3,7.2,77,30.02,10.0,SE,5.8,-,N/A,,Clear,130,2012-12-11 06:55:00